Weather in Poselok Man'ga

Russia / Republic of Karelia     61°38′03″N   33°26′40″E
temp.,
°C
wind,
m/s
gust,
m/s
humid.,
%
clouds,
%
prec.,
mm/h
press.,
hPa
HPBL,
m
29 june, wed
wed2900:00+9e22640 0.0 102736
03:00+8e22720 0.0 102740
06:00+12e13640 0.0 1026126
09:00+18se23410 0.0 10261011
12:00+22ese22320 0.0 10241687
15:00+24e1129100 0.0 10231954
18:00+23ne21335 0.0 10221435
21:00+16ese256223 0.0 1022103
30 june, thu
thu3000:00+12se1165100 0.0 102210
03:00+11nw116684 0.0 102310
06:00+14nnw116124 0.0 102360
09:00+21nnw234263 0.0 1022550
12:00+26n223041 0.0 10221248
15:00+28n23305 0.0 10211859
18:00+28n23355 0.0 10202076
21:00+22n11625 0.0 102011
1 july, fri
fri100:00+17wnw11754 0.0 102111
03:00+16nnw11760 0.0 102211
06:00+19nw01670 0.0 102251
09:00+26w11470 0.0 1022429
12:00+30wnw22350 0.0 10212094
15:00+31wnw223028 0.0 10202871
18:00+30wnw223229 0.0 10192677
21:00+22w2659100 0.0 1020131
2 july, sat
sat200:00+18w2364100 0.0 102037
03:00+17w2269100 0.0 102025
06:00+19w1267100 0.0 102086
09:00+24w234792 0.0 1020399
12:00+27wnw2335100 0.0 10191093
15:00+29wsw3332100 0.0 10182326
18:00+21w3866100 0.0 1019476
21:00+19wnw2683100 0.0 1019306
3 july, sun
sun300:00+18sw1285100 0.0 101847
03:00+18s1184100 0.0 101814
06:00+19ssw127979 0.0 1017133
09:00+24sw1258100 0.0 1016692
12:00+27sw2246100 0.0 10151337
15:00+28wsw234260 0.0 10141807
18:00+26w365576 0.0 1013422
21:00+23w3770100 0.0 1014249